Asuncion, Paraguay

5:53 PM -03 en Diciembre 13, 2017 (GMT -0300)
Silvio Pettirossi International

Tiempo Historia de SGAS - Agosto, 2017

Change the Weather History Date:

Domingo, Agosto 13, 2017

  Actual Average Record
Temperature  
Temperatura media 60 ° F -  
Temperatura máxima 66 ° F 77 ° F 100 ° F (2006)
Temperatura mínima 53 ° F 59 ° F 46 ° F (1999)
Degree Days  
Grados día de calefacción 6    
Growing Degree Days 10 (Base 50)    
Moisture  
Punto de rocío 56 ° F    
Average Humidity 86    
Maximum Humidity 100    
Minimum Humidity 65    
Precipitación  
Precipitación 0.51 pul 0.10 pul - ()
Presión al nivel del mar  
Presión al nivel del mar 29.95 pul    
Viento  
Velocidad del viento 11 mph ()    
Velocidad máxima del viento 22 mph    
Max Gust Speed -    
Visibilidad 6.4 Millas    
Eventos Lluvia , Tormenta    
Averages and records for this station are not official NWS values.
T = Trace of Precipitation, MM = Missing Value Source: Averaged Metar Reports

Daily Weather History Graph

Daily Weather History Graph

Search for Another Location

Airport or City:

Trip Planner

Search our weather history database for the weather conditions in past years. The results will help you decide how hot, cold, wet, or windy it might be!

Date:

Astronomía

Aug. 13, 2017 Salida Puesta
Hora real 6:19 AM -04 5:30 PM -04
Crepúsculo civil 5:55 AM -04 5:54 PM -04
Crepúsculo náutico 5:28 AM -04 6:21 PM -04
Crepúsculo astronómico 5:01 AM -04 6:48 PM -04
Luna 11:13 PM -04 10:12 AM -04
Horas de luz 11h 58m
Horas de luz
11h 11m
Gibosa menguante, 65% of the Moon is Illuminated
Ago 13
Gibosa menguante
Ago 14
Cuarto menguante
Ago 21
Nueva
Ago 29
Cuarto creciente
Sep 6
Luna llena

Hourly Weather History & Observations

Hora (-04) Temp. Punto de rocío Humedad Presión Visibilidad Wind Dir Velocidad del viento Velocidad de ráfagas Precip Eventos Condiciones
12:00 AM 62.6 ° F 62.6 ° F 100% 29.77 pul 3.7 mi Sur 12.7 mph - N/A Lluvia , Tormenta Tormenta
1:00 AM 62.6 ° F 60.8 ° F 94% 29.80 pul 4.3 mi SSO 15.0 mph - N/A Lluvia , Tormenta Tormenta
1:43 AM 60.8 ° F 59.0 ° F 94% 29.89 pul 2.5 mi SO 21.9 mph - N/A Lluvia , Tormenta Tormenta
2:00 AM 61 ° F 60 ° F 97% 29.88 pul 3 mi SO 18.4 mph - - Lluvia , Tormenta Tormenta
3:00 AM 59.0 ° F 57.2 ° F 94% 29.86 pul 4.3 mi SO 18.4 mph - N/A Lluvia , Tormenta Tormenta
4:00 AM 59.0 ° F 57.2 ° F 94% 29.86 pul 1.9 mi SO 12.7 mph - N/A Lluvia , Tormenta Tormenta
5:00 AM 59 ° F 58 ° F 97% 29.92 pul 3 mi SO 18.4 mph - - Lluvia , Tormenta Tormenta
5:00 AM 59.0 ° F 57.2 ° F 94% 29.89 pul 3.1 mi SO 18.4 mph - N/A Lluvia , Tormenta Tormenta
6:00 AM 59.0 ° F 57.2 ° F 94% 29.92 pul 6.2 mi SO 13.8 mph - N/A Lluvia , Tormenta Tormenta débil
7:00 AM 59.0 ° F 57.2 ° F 94% 29.95 pul 6.2 mi SO 12.7 mph - N/A Lluvia Lluvia débil
7:30 AM 59.0 ° F 57.2 ° F 94% 29.95 pul 6.2 mi SO 10.4 mph - N/A Lluvia Lluvia débil
8:00 AM 59 ° F 56 ° F 88% 29.97 pul 9 mi SO 8.1 mph - - Lluvia Lluvia débil
8:00 AM 59.0 ° F 57.2 ° F 94% 29.95 pul 6.2 mi SSO 8.1 mph - N/A Lluvia Lluvia débil
8:30 AM 59.0 ° F 57.2 ° F 94% 29.95 pul 6.2 mi Sur 8.1 mph - N/A   Muy nublado
9:00 AM 59.0 ° F 57.2 ° F 94% 29.95 pul 6.2 mi Sur 3.5 mph - N/A   Muy nublado
9:30 AM 60.8 ° F 57.2 ° F 88% 29.95 pul 6.2 mi OSO 4.6 mph - N/A   Muy nublado
10:00 AM 60.8 ° F 57.2 ° F 88% 29.98 pul 6.2 mi OSO 12.7 mph - N/A   Muy nublado
11:00 AM 60 ° F 58 ° F 90% 30.01 pul 9 mi Oeste 12.7 mph - - Lluvia Lluvia débil
11:00 AM 59.0 ° F 55.4 ° F 88% 30.01 pul 6.2 mi Oeste 12.7 mph - N/A Lluvia Lluvia débil
12:00 PM 60.8 ° F 55.4 ° F 82% 30.01 pul 6.2 mi Oeste 10.4 mph - N/A   Nublado
1:00 PM 62.6 ° F 57.2 ° F 82% 29.98 pul 6.2 mi Oeste 10.4 mph - N/A   Nublado
2:00 PM 64 ° F 55 ° F 65% 29.96 pul 12 mi Oeste 8.1 mph - -   Parcialmente nublado
2:00 PM 64.4 ° F 53.6 ° F 68% 29.95 pul 6.2 mi Oeste 8.1 mph - N/A   Muy nublado
3:00 PM 64.4 ° F 53.6 ° F 68% 29.95 pul 6.2 mi Oeste 10.4 mph - N/A   Muy nublado
4:00 PM 64.4 ° F 53.6 ° F 68% 29.95 pul 6.2 mi Oeste 10.4 mph - N/A   Muy nublado
5:00 PM 63 ° F 56 ° F 70% 29.99 pul 12 mi Oeste 11.5 mph - -   Muy nublado
5:00 PM 62.6 ° F 53.6 ° F 72% 29.98 pul 6.2 mi Oeste 11.5 mph - N/A   Muy nublado
6:00 PM 60.8 ° F 53.6 ° F 77% 29.98 pul 6.2 mi OSO 9.2 mph - N/A   Muy nublado
7:00 PM 59.0 ° F 51.8 ° F 77% 30.01 pul 6.2 mi OSO 6.9 mph - N/A   Nubes dispersas
8:00 PM 57 ° F 51 ° F 75% 30.04 pul 12 mi SSO 3.5 mph - -  
8:00 PM 55.4 ° F 51.8 ° F 88% 30.01 pul - SSO 3.5 mph - N/A   Despejado
9:00 PM 53.6 ° F 51.8 ° F 94% 30.01 pul - SSE 4.6 mph - N/A   Despejado
10:00 PM 53.6 ° F 51.8 ° F 94% 30.01 pul - Sin viento Sin viento - N/A   Despejado
11:00 PM 54 ° F 50 ° F 83% 30.01 pul 12 mi SE 6.9 mph - -  
11:00 PM 53.6 ° F 50.0 ° F 88% 29.98 pul - SE 6.9 mph - N/A   Despejado